Location: *
(50.9167°S, 179.4000°W)
Time: 20:38:45
(UTC+00:00)

Cosmos 1697 Rocket - Pass Details

Date: 03 March 2024
Orbit: 830 x 844 km, 71.0° (Epoch: 16 April)

Event Time Altitude Azimuth Distance (km) Brightness Sun altitude
Rises 15:12:43 0° 209° (SSW) 3,419 6.0 -20.4°
Reaches altitude 10° 15:15:18 10° 202° (SSW) 2,479 5.3 -20.1°
Maximum altitude 15:20:46 46° 129° (SE) 1,131 3.8 -19.5°
Drops below altitude 10° 15:26:10 10° 56° (NE) 2,455 5.3 -18.8°
Sets 15:28:42 0° 49° (NE) 3,382 6.0 -18.5°
